Weather in Chelno-Vershini

Russia / Samara Oblast     54°24′52″N   51°04′50″E
temp.,
°C
wind,
m/s
gust,
m/s
humid.,
%
clouds,
%
prec.,
mm/h
press.,
hPa
HPBL,
m
27 september, mon
mon2701:00+8ne3485100 0.0 100671
04:00+8nne3788100 0.0 1006149
07:00+9ene4886100 0.2 1005343
10:00+8ene61088100 1.1 1007600
13:00+8ene61084100 0.7 1010704
16:00+9ne51168100 0.8 1012845
19:00+6ene81370100 0.0 1015608
22:00+4ene71187100 0.1 1017866
28 september, tue
tue2801:00+4ene61183100 0.1 1019978
04:00+4ne7117244 0.1 1020848
07:00+2ne613795 0.0 1022596
10:00+5ne8116517 0.0 1023879
13:00+8ne794955 0.0 10241445
16:00+8ne784465 0.0 10251574
19:00+5nne495775 0.0 1026250
22:00+3nne4106929 0.0 1027230
29 september, wed
wed2901:00+2nne3773100 0.0 1028170
04:00+2nne387683 0.0 1028203
07:00+1nne3978100 0.0 1029234
10:00+6ne47555 0.0 1030779
13:00+9nne454774 0.0 10301617
16:00+9nne564338 0.0 10301722
19:00+5nne346110 0.0 103058
22:00+3nne22675 0.0 103124
30 september, thu
thu3001:00+2nne22715 0.0 103211
04:00+1n22745 0.0 103211
07:00+1n11760 0.0 103310
10:00+6nnw22575 0.0 1033384
13:00+9nw334824 0.0 10321351
16:00+9nnw4550100 0.0 10311502
19:00+7nw3671100 0.0 1031219
22:00+5wnw238684 0.1 103269
1 october, fri
fri101:00+6wsw2380100 0.0 1031122
04:00+7wsw258151 0.0 1030128
07:00+5w239177 0.0 103035
10:00+8w2481100 0.0 1030192
13:00+12w346751 0.0 1030912
16:00+12nw3666100 0.1 1029347
19:00+11nnw2368100 0.0 103060
22:00+10n2576100 0.0 1031132